Location: Rounton
(54.4000°N, 1.3500°W)
Time: 07:24:31
(UTC+00:00)

Altair - Pass Details

Date: 30 November 2021
Orbit: 1501 x 1683 km, 47.2° (Epoch: 24 January)

Event Time Altitude Azimuth Distance (km) Brightness Sun altitude
Rises 21:05:47 0° 275° (W) 4,674 10.7 -44.6°
Reaches altitude 10° 21:08:58 10° 269° (W) 3,676 9.9 -45.0°
Enters shadow 21:13:55 33° 249° (WSW) 2,339 8.5 -45.7°
Maximum altitude 21:17:35 47° 200° (SSW) 1,914 - -46.1°
Drops below altitude 10° 21:26:10 10° 131° (SE) 3,659 - -47.2°
Sets 21:29:20 0° 125° (SE) 4,651 - -47.5°
